TimeMST,TemperatureF,Dew PointF,Humidity,Sea Level PressureIn,VisibilityMPH,Wind Direction,Wind SpeedMPH,Gust SpeedMPH,PrecipitationIn,Events,Conditions,WindDirDegrees,DateUTC
12:13 AM,19.4,17.6,93,29.54,10.0,West,4.6,-,N/A,,Scattered Clouds,270,2013-02-21 07:13:00
12:22 AM,21.2,19.4,93,29.53,6.0,WNW,5.8,-,N/A,,Mostly Cloudy,300,2013-02-21 07:22:00
12:28 AM,21.2,19.4,93,29.54,1.5,NW,5.8,-,N/A,,Mostly Cloudy,310,2013-02-21 07:28:00
12:34 AM,23.0,21.2,93,29.54,0.2,NW,5.8,-,N/A,Fog,Light Freezing Fog,320,2013-02-21 07:34:00
12:54 AM,25.0,23.0,92,29.53,0.5,WNW,8.1,-,N/A,Fog,Light Freezing Fog,300,2013-02-21 07:54:00
1:02 AM,24.8,24.8,100,29.53,0.2,WNW,6.9,-,N/A,Fog,Light Freezing Fog,300,2013-02-21 08:02:00
1:19 AM,26.6,24.8,93,29.53,0.5,WNW,6.9,-,N/A,Fog,Light Freezing Fog,300,2013-02-21 08:19:00
1:26 AM,26.6,24.8,93,29.53,2.0,WNW,3.5,-,N/A,,Overcast,300,2013-02-21 08:26:00
1:34 AM,26.6,24.8,93,29.53,6.0,NW,5.8,-,N/A,,Overcast,310,2013-02-21 08:34:00
1:54 AM,25.0,23.0,92,29.51,10.0,West,5.8,-,N/A,,Overcast,280,2013-02-21 08:54:00
2:26 AM,24.8,23.0,93,29.54,10.0,SSW,5.8,-,N/A,,Overcast,210,2013-02-21 09:26:00
2:54 AM,26.1,23.0,88,29.54,10.0,SW,4.6,-,N/A,,Overcast,220,2013-02-21 09:54:00
3:45 AM,26.6,24.8,93,29.55,6.0,NW,6.9,-,0.00,Snow,Light Snow,320,2013-02-21 10:45:00
3:54 AM,26.1,24.1,92,29.56,5.0,NW,6.9,-,0.00,Snow,Light Snow,310,2013-02-21 10:54:00
4:05 AM,26.6,24.8,93,29.55,7.0,WNW,9.2,-,0.00,Snow,Light Snow,290,2013-02-21 11:05:00
4:37 AM,26.6,23.0,86,29.56,10.0,NW,9.2,-,0.00,,Mostly Cloudy,320,2013-02-21 11:37:00
4:44 AM,24.8,21.2,86,29.56,10.0,NW,11.5,-,0.00,,Scattered Clouds,320,2013-02-21 11:44:00
4:54 AM,25.0,21.9,88,29.57,10.0,NW,10.4,-,0.00,,Partly Cloudy,320,2013-02-21 11:54:00
5:54 AM,23.0,19.9,88,29.61,10.0,NW,11.5,-,N/A,,Scattered Clouds,310,2013-02-21 12:54:00
6:32 AM,24.8,21.2,86,29.59,10.0,NW,15.0,23.0,N/A,,Overcast,310,2013-02-21 13:32:00
6:54 AM,24.1,21.0,88,29.64,8.0,NW,16.1,28.8,N/A,,Overcast,310,2013-02-21 13:54:00
7:54 AM,24.1,19.9,84,29.68,10.0,WNW,16.1,-,N/A,,Overcast,300,2013-02-21 14:54:00
8:15 AM,24.8,19.4,80,29.64,10.0,NW,17.3,25.3,N/A,,Overcast,310,2013-02-21 15:15:00
8:54 AM,24.1,19.9,84,29.70,10.0,NW,17.3,26.5,N/A,,Mostly Cloudy,320,2013-02-21 15:54:00
9:04 AM,24.8,19.4,80,29.66,10.0,NW,19.6,26.5,N/A,,Mostly Cloudy,320,2013-02-21 16:04:00
9:52 AM,24.8,19.4,80,29.69,1.8,NNW,13.8,-,0.00,Snow,Light Snow,330,2013-02-21 16:52:00
9:54 AM,24.1,19.9,84,29.75,1.5,NNW,15.0,-,0.00,Snow,Light Snow,330,2013-02-21 16:54:00
10:18 AM,21.2,19.4,93,29.70,0.8,North,17.3,21.9,0.00,Snow,Light Snow,10,2013-02-21 17:18:00
10:23 AM,21.2,17.6,86,29.70,1.0,NNE,15.0,-,0.00,Snow,Light Snow,20,2013-02-21 17:23:00
10:28 AM,21.2,17.6,86,29.71,1.2,NNE,15.0,-,0.00,Snow,Light Snow,20,2013-02-21 17:28:00
10:38 AM,21.2,17.6,86,29.71,2.0,NNE,15.0,-,0.00,Snow,Light Snow,20,2013-02-21 17:38:00
10:47 AM,21.2,17.6,86,29.71,2.0,North,15.0,-,0.00,Snow,Light Snow,10,2013-02-21 17:47:00
10:54 AM,21.9,17.1,82,29.80,1.8,North,16.1,-,0.00,Snow,Light Snow,10,2013-02-21 17:54:00
11:08 AM,21.2,17.6,86,29.72,2.5,North,17.3,21.9,0.00,Snow,Light Snow,10,2013-02-21 18:08:00
11:15 AM,21.2,17.6,86,29.72,6.0,North,16.1,-,0.00,Snow,Light Snow,10,2013-02-21 18:15:00
11:28 AM,21.2,17.6,86,29.72,8.0,NNE,13.8,-,0.00,,Overcast,20,2013-02-21 18:28:00
11:54 AM,23.0,17.1,78,29.82,10.0,North,9.2,-,0.00,,Overcast,10,2013-02-21 18:54:00
12:08 PM,21.2,17.6,86,29.72,10.0,NE,5.8,-,N/A,,Overcast,40,2013-02-21 19:08:00
12:51 PM,23.0,17.6,80,29.70,10.0,Calm,Calm,-,N/A,,Overcast,0,2013-02-21 19:51:00
12:54 PM,24.1,18.0,77,29.77,10.0,North,4.6,-,N/A,,Overcast,350,2013-02-21 19:54:00
1:27 PM,24.8,17.6,74,29.69,10.0,Calm,Calm,-,0.02,,Overcast,0,2013-02-21 20:27:00
1:37 PM,24.8,17.6,74,29.69,10.0,Calm,Calm,-,0.03,,Overcast,0,2013-02-21 20:37:00
1:54 PM,25.0,18.0,75,29.76,10.0,NNW,4.6,-,0.03,,Overcast,340,2013-02-21 20:54:00
2:54 PM,25.0,18.0,75,29.76,10.0,Calm,Calm,-,0.01,,Overcast,0,2013-02-21 21:54:00
3:54 PM,27.0,19.0,72,29.77,10.0,NNE,3.5,-,N/A,,Overcast,30,2013-02-21 22:54:00
4:54 PM,26.1,19.0,75,29.80,10.0,East,3.5,-,N/A,,Overcast,80,2013-02-21 23:54:00
5:54 PM,26.1,19.0,75,29.84,10.0,Calm,Calm,-,N/A,,Overcast,0,2013-02-22 00:54:00
6:54 PM,26.1,19.0,75,29.88,10.0,Calm,Calm,-,N/A,,Overcast,0,2013-02-22 01:54:00
7:54 PM,25.0,19.0,78,29.90,10.0,NE,6.9,-,N/A,,Overcast,50,2013-02-22 02:54:00
8:54 PM,23.0,19.0,85,29.93,10.0,NE,10.4,-,N/A,,Overcast,50,2013-02-22 03:54:00
9:54 PM,23.0,18.0,81,29.94,10.0,NE,3.5,-,N/A,,Overcast,50,2013-02-22 04:54:00
10:54 PM,23.0,18.0,81,29.96,10.0,SSW,3.5,-,N/A,,Overcast,200,2013-02-22 05:54:00
11:54 PM,23.0,18.0,81,29.95,10.0,South,5.8,-,N/A,,Overcast,180,2013-02-22 06:54:00